Retour au catalogue

SINOSAT 2

ActifCommunicationsGEO
NORAD 29516·PAYLOAD·🇨🇳 China

Lancé Oct 28, 2006 depuis Xichang Satellite Launch Center

Loading…

TLE

FraisSource: Space-Track

Époque: Sep 14, 2026, 14:45 UTC

1 29516U 06048A   26257.61522786 -.00000116  00000-0  00000-0 0  9999
2 29516  14.6427  53.5779 0035374 287.5274  76.7601  0.92881861 68242

Suivez SINOSAT 2 en temps réel avec AllMySat

Download on the App Store